Weather History for Big Delta, AK

Change the Weather History Date:

Saturday, August 3, 2013

  Actual Average Record
Temperature  
Mean Temperature 70 °F -  
Max Temperature 75 °F 64 °F 84 °F (2010)
Min Temperature 66 °F 48 °F 44 °F (1996)
Cooling Degree Days 6    
Growing Degree Days 20 (Base 50)    
Moisture  
Dew Point 35 °F    
Average Humidity 26    
Maximum Humidity 38    
Minimum Humidity 12    
Precipitation  
Precipitation 0.00 in - - ()
Sea Level Pressure  
Sea Level Pressure 29.73 in    
Wind  
Wind Speed 25 mph (South)    
Max Wind Speed 36 mph    
Max Gust Speed 50 mph    
Visibility 10 miles    
Events      
Averages and records for this station are not official NWS values.
T = Trace of Precipitation, MM = Missing Value Source: NWS Daily Summary

Daily Weather History Graph

Daily Weather History Graph

Search for Another Location

Airport:

Trip Planner

Search our weather history database for the weather conditions in past years. The results will help you decide how hot, cold, wet, or windy it might be!

Date:

Astronomy

Aug. 03, 2013 Rise Set
Actual Time 4:58 AM AKDT 10:36 PM AKDT
Civil Twilight 3:36 AM AKDT 11:56 PM AKDT
Nautical Twilight Sun does not rise Sun does not rise
Astronomical Twilight Sun does not rise Sun does not rise
Moon 1:59 AM AKDT (8/3) 8:34 PM AKDT (8/3)
Length of Visible Light 20h 19m
Length of Day
17h 37m
Waning Crescent, 9% of the Moon is Illuminated
Aug 3
Waning Crescent
Aug 6
New
Aug 14
First Quarter
Aug 20
Full
Aug 28
Last Quarter

Hourly Weather History & Observations

Time (AKDT) Temp. Dew Point Humidity Pressure Visibility Wind Dir Wind Speed Gust Speed Precip Events Conditions
12:53 AM 72.0 °F 26.1 °F 18% 29.76 in 10.0 mi SSE 17.3 mph 27.6 mph N/A   Clear
1:53 AM 71.1 °F 30.0 °F 22% 29.77 in 10.0 mi South 24.2 mph 32.2 mph N/A   Clear
2:53 AM 71.1 °F 37.0 °F 29% 29.76 in 10.0 mi SSE 18.4 mph 27.6 mph N/A   Clear
3:53 AM 70.0 °F 37.0 °F 30% 29.75 in 10.0 mi SE 15.0 mph 25.3 mph N/A   Clear
4:53 AM 70.0 °F 28.0 °F 21% 29.74 in 10.0 mi South 21.9 mph 33.4 mph N/A   Clear
5:53 AM 70.0 °F 25.0 °F 18% 29.70 in 10.0 mi South 28.8 mph 43.7 mph N/A   Widespread Dust
6:53 AM 70.0 °F 26.1 °F 19% 29.69 in 10.0 mi South 33.4 mph 49.5 mph N/A   Widespread Dust
7:53 AM 69.1 °F 28.0 °F 22% 29.71 in 10.0 mi South 28.8 mph 46.0 mph N/A   Widespread Dust
8:53 AM 66.0 °F 32.0 °F 28% 29.74 in 10.0 mi South 33.4 mph 47.2 mph N/A   Widespread Dust
9:53 AM 68.0 °F 28.0 °F 22% 29.73 in 10.0 mi South 29.9 mph 40.3 mph N/A   Widespread Dust
10:53 AM 68.0 °F 30.0 °F 24% 29.73 in 10.0 mi South 27.6 mph 35.7 mph N/A   Widespread Dust
11:53 AM 70.0 °F 32.0 °F 25% 29.73 in 10.0 mi South 25.3 mph 33.4 mph N/A   Widespread Dust
12:53 PM 70.0 °F 36.0 °F 29% 29.75 in 10.0 mi South 32.2 mph 42.6 mph N/A   Widespread Dust
1:53 PM 71.1 °F 37.0 °F 29% 29.74 in 10.0 mi South 25.3 mph 35.7 mph N/A   Widespread Dust
2:53 PM 71.1 °F 37.9 °F 30% 29.71 in 10.0 mi South 31.1 mph 48.3 mph N/A   Widespread Dust
3:53 PM 75.0 °F 37.9 °F 26% 29.70 in 10.0 mi South 31.1 mph 44.9 mph N/A   Widespread Dust
4:53 PM 73.9 °F 39.0 °F 28% 29.70 in 10.0 mi South 35.7 mph 43.7 mph N/A   Widespread Dust
5:53 PM 75.0 °F 39.9 °F 28% 29.70 in 10.0 mi South 29.9 mph 44.9 mph N/A   Widespread Dust
6:53 PM 73.9 °F 39.9 °F 29% 29.71 in 10.0 mi South 33.4 mph 48.3 mph N/A   Widespread Dust
7:53 PM 72.0 °F 39.9 °F 31% 29.71 in 10.0 mi South 26.5 mph 39.1 mph N/A   Widespread Dust
8:53 PM 71.1 °F 39.9 °F 32% 29.72 in 10.0 mi South 23.0 mph 38.0 mph N/A   Widespread Dust
9:29 PM 69.8 °F 39.2 °F 33% 29.73 in 10.0 mi South 28.8 mph 39.1 mph N/A   Widespread Dust
9:53 PM 68.0 °F 39.9 °F 36% 29.73 in 10.0 mi South 25.3 mph 40.3 mph N/A   Clear
10:53 PM 66.9 °F 39.9 °F 37% 29.74 in 10.0 mi South 27.6 mph 38.0 mph N/A   Clear
11:53 PM 66.0 °F 39.9 °F 38% 29.76 in 10.0 mi South 26.5 mph 36.8 mph N/A   Mostly Cloudy